This demonstration page uses our WeatherBlox Daily Observations layout. Learn more.

Left ArrowRight Arrow

39.92423, -83.80882

Hourly Observations for December 7, 2015

Temp ( °F °C ) Dew Point ( °F °C ) Humidity (%) Winds ( mph kmh ) Pressure ( in mb ) Visibility ( mi km ) Precip ( " mm )
12:56 am 00:56 Cloudy 39 3.8 32 0 77 77 S 3 6 30.24 1024 10 16.0934 0 0
1:56 am 01:56 Cloudy 38 3.3 34 1.1 86 86 Calm 30.22 1023 10 16.0934 0 0
2:56 am 02:56 Cloudy 37 2.7 35 1.6 93 93 SW 3 6 30.22 1023 10 16.0934 0 0
3:56 am 03:56 Cloudy 37 2.7 34 1.1 89 89 WSW 3 6 30.21 1023 10 16.0934 0 0
4:56 am 04:56 Cloudy 40 4.4 35 1.6 82 82 W 3 6 30.2 1023 10 16.0934 0 0
5:56 am 05:56 Mostly Cloudy 38 3.3 35 1.6 89 89 Calm 30.2 1023 10 16.0934 0 0.0254
6:56 am 06:56 Partly Cloudy 37 2.7 34 1.1 89 89 Calm 30.22 1023 10 16.0934 0 0
7:56 am 07:56 Cloudy 35 1.6 34 1.1 97 97 Calm 30.23 1024 10 16.0934 0 0
8:56 am 08:56 Cloudy 38 3.3 37 2.7 96 96 W 3 6 30.24 1024 10 16.0934 0 0
9:56 am 09:56 Cloudy 40 4.4 36 2.2 86 86 WNW 5 7 30.24 1024 10 16.0934 0 0
10:56 am 10:56 Cloudy 41 5 38 3.3 89 89 NW 6 9 30.25 1024 10 16.0934 0 0
11:56 am 11:56 Partly Cloudy 45 7.2 40 4.4 83 83 NW 6 9 30.22 1023 10 16.0934 0 0
12:56 pm 12:56 Mostly Cloudy 48 8.8 39 3.8 71 71 WNW 5 7 30.21 1023 10 16.0934 0 0
1:56 pm 13:56 Sunny 50 10 40 4.4 68 68 W 5 7 30.19 1022 10 16.0934 0 0
2:56 pm 14:56 Mostly Cloudy 49 9.4 40 4.4 71 71 SW 6 9 30.18 1022 10 16.0934 0 0
3:06 pm 15:06 Partly Cloudy 48 9 39 4 71 71 WSW 5 7 30.18 1022 10 16.0934 0 0
3:56 pm 15:56 Sunny 50 10 39 3.8 66 66 Calm 30.17 1022 10 16.0934 0 0
4:56 pm 16:56 Sunny 46 7.7 38 3.3 74 74 WSW 7 11 30.19 1022 10 16.0934 0 0
5:56 pm 17:56 Cloudy 44 6.6 38 3.3 80 80 Calm 30.2 1023 10 16.0934 0 0
6:56 pm 18:56 Partly Cloudy 39 3.8 36 2.2 89 89 SSE 5 7 30.19 1023 10 16.0934 0 0
7:56 pm 19:56 Clear 40 4.4 37 2.7 89 89 S 5 7 30.19 1022 10 16.0934 0 0
8:56 pm 20:56 Clear 40 4.4 38 3.3 93 93 S 5 7 30.18 1022 10 16.0934 0 0
9:56 pm 21:56 Clear 36 2.2 35 1.6 96 96 SW 6 9 30.18 1022 8 12.87472 0 0
10:56 pm 22:56 Clear with Mist and Fog 36 2.2 36 2.2 100 100 SSW 5 7 30.16 1021 4 6.43736 0 0
11:49 pm 23:49 Clear with Mist and Fog 34 1 34 1 100 100 SSW 3 6 30.21 1023 1.75 2.816345 0 0
11:56 pm 23:56 Clear with Mist and Fog 33 0.5 33 0.5 100 100 SSW 3 6 30.16 1021 1 1.60934 0 0

Powered by AerisWeather